Location: Columbia
(38.9520°N, 92.3340°W)
Time: 22:34:16
(UTC-05:00)

Cosmos 1603 - Visible Passes

Search period start: 29 August 2015 00:00
Search period end: 08 September 2015 00:00
Orbit: 832 x 859 km, 71.0° (Epoch: 28 August)

Date Brightness Start Highest point End Pass type
(mag) Time Alt. Az. Time Alt. Az. Time Alt. Az.
29 Aug 5.8 04:28:12 10° SSE 04:32:22 22° ESE 04:36:43 10° NE visible
30 Aug 5.8 04:14:25 10° SSE 04:18:31 21° ESE 04:22:47 10° NE visible
30 Aug 4.0 05:56:50 10° SW 06:02:20 49° WNW 06:07:49 10° NNE visible
31 Aug 5.8 04:00:59 11° SE 04:04:39 21° ESE 04:08:51 10° NE visible
31 Aug 4.0 05:42:56 10° SW 05:48:27 51° WNW 05:53:57 10° NNE visible
01 Sep 5.8 03:48:12 15° SE 03:50:48 20° ESE 03:54:54 10° NE visible
01 Sep 3.9 05:30:08 16° SW 05:34:34 53° WNW 05:40:05 10° NNE visible
02 Sep 5.7 03:35:19 17° ESE 03:36:56 19° ESE 03:40:57 10° NE visible
02 Sep 3.9 05:17:15 23° SW 05:20:41 54° WNW 05:26:13 10° NNE visible
03 Sep 5.7 03:22:22 18° ESE 03:23:05 19° E 03:26:59 10° ENE visible
03 Sep 3.8 05:04:18 32° SW 05:06:48 56° WNW 05:12:22 10° NNE visible
04 Sep 5.8 03:09:21 18° E 03:09:21 18° E 03:13:02 10° ENE visible
04 Sep 3.8 04:51:16 42° WSW 04:52:56 58° WNW 04:58:30 10° NNE visible
05 Sep 5.9 02:56:17 17° E 02:56:17 17° E 02:59:05 10° ENE visible
05 Sep 3.7 04:38:11 53° WSW 04:39:03 60° WNW 04:44:38 10° NNE visible
06 Sep 6.1 02:43:07 15° E 02:43:07 15° E 02:45:06 10° ENE visible
06 Sep 3.7 04:25:03 62° WNW 04:25:10 62° WNW 04:30:46 10° NNE visible
07 Sep 6.2 02:29:56 13° ENE 02:29:56 13° ENE 02:31:07 10° ENE visible
07 Sep 3.9 04:11:51 60° NW 04:11:51 60° NW 04:16:54 10° NNE visible
